Volver al catálogo

BREEZE-M DEB

ActivoHEO
NORAD 38578·DEBRIS·🇷🇺 Russia

Lanzado Mar 14, 2008 desde Baikonur Cosmodrome

Loading…

Próximos Pases (próximas 24 horas)

TLE

EnvejeciendoSource: Space-Track

Época: Sep 3, 2026, 08:05 UTC

1 38578U 08011Z   26246.33717295  .00000033  00000-0  54167-3 0  9990
2 38578  47.5659 273.2773 6428969  82.0252 341.5454  3.13313226 51706

Sigue BREEZE-M DEB en tiempo real con AllMySat

Download on the App Store